EHI
0 0 0 0 0 0 0 0 0 0 0 0 0 0 0 0 0 0 0 0 0 0 0 0 0 0 0 0 0 0 0 0 0 0 0 0 0 0
0 0 0 0 0 0 0 0 0 0 0 0 0 0 0 0 0 0 0 0 0 0 0 0 0 0 0 0 0 0 0 0 0 0 0 0 0 0
0 0 0 0 0 0 0 0 0 0 0 0 0 0 0 0 0 0 0 0 0 0 0 0 0 0 0 0 0 0 0 0 0 0 0 0 0 0
0 0 0 0 0 0 0 0 0 0 0 0 0 0 0 0 0 0 0 0 0 0 0 0 0 0 0 0 0 0 0 0 0 0 0 0 0 0
0 0 0 0 0 0 0 0 0 0 0 0 0 0 0 0 0 0 0 0 0 0 0 0 0 0 0 0 0 0 0 0 0 0 0 0 0 0
0 0 0 0 0 0 0 0 0 0 0 0 0 0 0 0 0 0 0 0 0 0 0 0 0 0 0 0 0 0 0 0 0 0 0 0 0 0
0 0 0 0 0 0 0 0 0 0 0 0 0 0 0 0 0 0 0 0 0 0 0 0 0 0 0 0 0 0 0 0 0 0 0 0 0 0
0 0 0 0 0 0 0 0 0 0 0 0 0 0 0 0 0 0 0 0 0 0 0 0 0 0 0 0 0 0 0 0 0 0 0 0 0 0
0 0 0 0 0 0 0 0 0 0 0 0 0 0 0 0 0 0 0 0 0 0 0 0 0 0 0 0 0 0 0 0 0 0 0 0 0 0
0 0 0 0 0 0 0 0 0 0 0 0 0 0 0 0 0 0 0 0 0 0 0 0 0 0 0 0 0 0 0 0 0 0 0 0 0 0
0 0 0 0 0 0 0 0 0 0 0 0 0 0 0 0 0 0 0 0 0 0 0 0 0 0 0 0 0 0 0 0 0 0 0 0 0 0
0 0 0 0 0 0 0 0 0 0 0 0 0 0 0 0 0 0 0 0 0 0 0 0 0 0 0 0 0 0 0 0 0 0 0 0 0 0
0 0 0 0 0 0 0 0 0 0 0 0 0 0 0 0 0 0 0 0 0 0 0 0 0 0 0 0 0 0 0 0 0 0 0 0 0 0
0 0 0 0 0 0 0 0 0 0 0 0 0 0 0 0 0 0 0 0 0 0 0 0 0 0 0 0 0 0 0 0 0 0 0 0 0 0
0 0 0 0 0 0 0 0 0 0 0 0 0 0 0 0 0 0 0 0 0 0 0 0 0 0 0 0 0 0 0 0 0 0 0 0 0 0
0 0 0 0 0 0 0 0 0 0 0 0 0 0 0 0 0 0 0 0 0 0 0 0 0 0 0 0 0 0 0 0 0 0 0 0 0 0
0 0 0 0 0 0 0 0 0 0 0 0 0 0 0 0 0 0 0 0 0 0 0 0 0 0 0 0 0 0 0 0 0 0 0 0 0 0
0 0 0 0 0 0 0 0 0 0 0 0 0 0 0 0 0 0 0 0 0 0 0 0 0 0 0 0 0 0 0 0 0 0 0 0 0 0
0 0 0 0 0 0 0 0 0 0 0 0 0 0 0 0 0 0 0 0 0 0 0 0 0 0 0 0 0 0 0 0 0 0 0 0 0 0
0 0 0 0 0 0 0 0 0 0 0 0 0 0 0 0 0 0 0 0 0 0 0 0 0 0 0 0 0 0 0 0 0 0 0 0 0 0
0 0 0 0 0 0 0 0 0 0 0 0 0 0 0 0 0 0 0 0 0 0 0 0 0 0 0 0 0 0 0 0 0 0 0 0 0 0
0 0 0 0 0 0 0 0 0 0 0 0 0 0 0 0 0 0 0 0 0 0 0 0 0 0 0 0 0 0 0 0 0 0 0 0 0 0
0 0 0 0 0 0 0 0 0 0 0 0 0 0 0 0 0 0 0 0 0 0 0 0 0 0 0 0 0 0 0 0 0 0 0 0 0 0
Wind_Speed
11 11 10 8 7 7 6 6 6 7 8 6 5 6 6 5 8 7 8 13 16 16 16 15 15 15 15 14 13 12 12 12 11 11 12 13 13 13
9 11 11 8 8 7 7 7 7 8 8 5 6 4 5 5 9 7 8 12 14 15 15 14 14 14 14 13 12 12 12 12 12 12 12 13 13 13
10 12 13 11 9 8 7 7 8 7 10 7 4 4 6 6 5 5 5 6 7 12 13 13 13 13 13 12 12 12 12 11 11 12 12 13 12 12
12 12 12 9 11 9 8 9 9 8 9 10 5 4 6 6 5 5 5 5 5 9 12 12 12 12 12 12 12 12 11 11 11 11 12 12 12 12
11 12 12 11 12 9 9 9 8 7 7 7 7 4 3 3 3 4 4 4 4 6 9 11 11 12 12 12 12 11 11 11 11 11 11 11 12 12
11 11 11 12 13 12 10 10 8 7 7 6 6 4 3 2 2 3 3 3 4 3 5 6 8 10 11 11 11 11 11 11 11 11 11 11 11 12
10 10 10 11 13 11 9 9 8 7 6 6 6 4 4 3 4 3 4 3 3 2 2 3 4 4 5 8 9 10 11 11 11 11 11 11 11 11
9 9 9 10 12 13 13 12 11 9 9 7 6 6 7 5 4 3 3 2 4 2 3 3 3 4 4 4 7 9 10 10 10 10 10 10 10 11
8 7 6 6 9 9 10 11 11 11 11 9 8 8 7 6 6 5 5 5 4 2 3 3 2 4 3 3 7 8 9 9 9 9 9 10 11 11
7 7 7 6 7 8 8 8 7 7 8 8 7 7 6 5 6 6 5 3 0 1 2 3 2 3 2 2 6 7 7 7 8 8 9 9 10 10
5 5 6 6 7 7 7 8 7 5 5 6 6 5 4 5 5 3 3 3 2 2 2 2 1 1 1 2 3 5 6 7 7 7 8 8 8 8
3 4 6 5 5 6 7 7 7 6 4 3 3 2 2 3 5 5 5 4 2 2 2 2 1 1 1 1 1 2 3 5 6 6 7 7 7 4
3 3 3 4 4 5 5 5 6 5 4 4 3 2 1 1 1 1 2 3 4 3 3 3 2 1 2 1 1 2 2 2 2 3 5 6 7 5
3 2 2 3 4 4 4 4 5 4 3 3 3 2 2 1 1 2 2 1 2 2 3 3 3 3 2 1 2 1 1 2 2 2 2 5 6 7
1 1 1 2 2 2 3 4 4 3 3 3 3 2 2 2 2 2 3 4 4 3 2 2 2 2 2 3 2 1 1 2 2 2 2 3 3 3
0 1 2 2 2 2 2 2 1 2 3 3 3 2 2 2 2 2 2 2 3 2 3 2 1 2 2 2 3 2 2 2 2 2 2 3 3 3
1 1 2 2 2 2 2 2 2 2 2 3 3 3 3 3 2 2 2 2 2 1 0 2 2 1 1 3 2 3 3 2 2 2 2 3 4 3
2 2 2 2 2 2 2 2 2 2 2 3 3 3 3 3 3 2 2 2 2 1 1 1 1 2 2 1 3 3 2 2 2 2 2 3 4 3
2 1 1 1 2 2 2 2 1 2 2 3 3 3 3 3 3 2 2 2 1 1 1 1 1 1 0 2 3 2 2 2 2 2 2 3 4 5
2 1 1 1 1 2 2 2 2 2 2 2 2 3 3 3 3 3 2 2 2 1 1 0 1 1 2 2 2 2 3 3 2 2 2 2 3 5
2 1 1 1 1 1 1 2 2 2 2 2 3 3 3 3 3 2 2 3 2 1 1 1 1 1 0 1 0 2 2 3 4 3 2 2 2 2
1 1 1 1 1 1 1 2 2 2 2 2 2 3 3 3 3 3 3 2 2 1 1 0 0 1 1 1 1 2 3 3 4 5 5 4 2 2
1 1 1 1 1 1 1 2 2 2 2 2 2 2 3 3 2 2 2 2 2 2 1 0 1 1 0 1 1 1 2 2 2 2 3 4 4 6
Wind_Direction
222 220 223 226 221 220 219 216 226 252 255 233 228 223 224 224 227 223 225 231 231 232 232 231 230 232 234 235 238 240 242 242 242 244 249 255 261 265
223 222 225 226 224 219 220 222 224 237 255 237 227 221 215 225 228 226 227 229 229 230 231 230 230 230 230 231 230 232 236 239 241 243 247 252 256 261
225 225 227 224 224 220 218 220 225 228 249 259 239 225 213 221 232 228 227 226 227 227 227 227 228 227 227 227 228 231 234 237 239 242 245 249 253 258
227 227 228 223 224 220 218 221 225 225 236 251 251 230 226 221 219 226 229 227 228 228 227 228 227 226 226 226 228 230 232 234 238 242 244 247 252 256
228 227 228 221 225 221 218 222 224 227 229 239 248 237 230 219 215 236 233 230 231 230 229 231 231 229 227 226 227 228 229 231 234 240 243 246 250 255
230 229 228 224 226 219 218 220 220 223 225 232 241 237 229 211 193 224 237 225 229 224 226 231 233 231 229 230 228 227 227 229 232 238 241 244 249 253
235 231 229 227 229 221 218 213 211 217 221 226 234 232 222 201 212 210 228 226 237 217 224 224 222 220 220 228 227 226 226 229 232 236 242 246 247 250
239 236 231 226 228 220 218 212 208 211 216 219 228 230 231 224 213 204 211 207 241 204 204 235 206 222 217 210 222 225 228 232 235 238 242 246 249 251
237 236 236 232 224 214 215 214 214 216 215 215 223 228 228 223 205 205 211 212 224 191 179 227 209 228 222 225 226 224 226 232 238 240 245 250 252 253
237 233 230 231 222 210 206 207 213 218 219 218 222 224 223 214 206 204 207 197 144 190 172 215 218 233 243 229 226 222 224 230 238 245 249 253 254 256
244 239 234 231 220 202 198 201 207 216 212 205 210 209 202 195 178 155 161 169 204 212 197 201 209 236 253 237 231 231 234 238 243 248 251 253 257 261
248 243 243 232 214 193 198 199 205 207 183 185 195 204 201 180 169 184 185 181 170 206 193 175 177 154 261 259 230 226 229 240 247 253 258 261 265 258
251 247 238 211 196 191 200 204 204 186 167 168 164 158 135 130 144 153 175 180 176 200 175 153 163 175 180 253 272 235 215 229 241 254 263 271 269 259
250 239 207 182 181 187 195 182 171 166 152 149 151 155 147 134 110 98 92 81 110 164 168 164 172 178 168 190 249 263 252 226 217 242 254 272 269 265
235 190 166 154 159 173 171 158 155 155 148 154 160 162 147 137 124 105 80 75 63 57 96 141 151 163 172 191 212 223 264 256 222 232 251 252 249 241
158 125 117 109 117 121 129 137 143 148 149 154 143 132 121 125 129 124 122 115 88 42 31 42 95 156 185 199 200 226 220 231 242 250 261 264 251 234
72 94 93 92 95 94 92 96 104 118 125 125 132 132 128 126 122 111 113 107 116 146 58 25 31 31 212 189 198 221 229 239 234 243 256 269 258 242
71 93 102 109 119 119 119 110 108 117 121 126 130 133 136 136 125 111 110 120 129 142 147 123 48 18 15 327 219 219 236 238 251 243 227 251 269 258
72 85 101 123 125 126 130 135 139 131 125 127 132 138 139 135 130 129 133 130 131 141 163 153 140 125 94 289 299 220 208 248 264 254 230 233 254 266
55 66 77 109 128 137 141 135 130 128 128 133 138 144 144 140 141 144 147 150 152 148 151 147 160 175 191 223 260 277 251 233 237 257 266 271 269 275
29 34 47 76 103 126 134 138 142 148 148 145 145 147 147 142 143 147 150 149 140 152 176 241 256 333 32 78 328 293 281 268 259 245 239 261 284 286
21 29 31 50 81 109 128 138 132 132 141 142 145 147 147 147 151 155 157 163 176 181 194 232 21 58 82 144 247 283 303 313 310 297 262 234 226 237
356 9 18 50 81 108 118 128 137 140 139 144 148 146 145 146 152 156 161 166 166 160 141 111 40 49 15 206 232 270 290 305 323 330 311 306 297 285